TimeCDT,TemperatureF,Dew PointF,Humidity,Sea Level PressureIn,VisibilityMPH,Wind Direction,Wind SpeedMPH,Gust SpeedMPH,PrecipitationIn,Events,Conditions,WindDirDegrees,DateUTC
12:53 AM,44.1,39.9,85,30.02,10.0,SSW,4.6,-,N/A,,Clear,210,2012-11-02 05:53:00
1:53 AM,44.1,39.9,85,30.02,10.0,Calm,Calm,-,N/A,,Clear,0,2012-11-02 06:53:00
2:53 AM,42.1,39.0,89,30.02,10.0,Calm,Calm,-,N/A,,Clear,0,2012-11-02 07:53:00
3:53 AM,43.0,39.0,86,30.03,10.0,Calm,Calm,-,N/A,,Clear,0,2012-11-02 08:53:00
4:53 AM,41.0,37.9,89,30.03,10.0,Calm,Calm,-,N/A,,Clear,0,2012-11-02 09:53:00
5:53 AM,39.9,37.0,89,30.04,10.0,Calm,Calm,-,N/A,,Clear,0,2012-11-02 10:53:00
6:53 AM,42.1,39.0,89,30.04,10.0,Calm,Calm,-,N/A,,Clear,0,2012-11-02 11:53:00
7:53 AM,45.0,42.1,90,30.05,10.0,Calm,Calm,-,N/A,,Clear,0,2012-11-02 12:53:00
8:53 AM,55.0,45.0,69,30.06,10.0,Calm,Calm,-,N/A,,Clear,0,2012-11-02 13:53:00
9:53 AM,64.0,48.9,58,30.06,10.0,WSW,5.8,-,N/A,,Clear,250,2012-11-02 14:53:00
10:53 AM,72.0,51.1,48,30.06,10.0,WSW,6.9,-,N/A,,Clear,240,2012-11-02 15:53:00
11:53 AM,77.0,52.0,42,30.03,10.0,WSW,8.1,-,N/A,,Clear,250,2012-11-02 16:53:00
12:53 PM,79.0,53.1,40,30.01,10.0,WNW,8.1,-,N/A,,Clear,290,2012-11-02 17:53:00
1:53 PM,81.0,52.0,36,29.98,10.0,WNW,8.1,-,N/A,,Clear,290,2012-11-02 18:53:00
2:53 PM,82.0,51.1,34,29.97,10.0,NW,11.5,18.4,N/A,,Clear,310,2012-11-02 19:53:00
3:53 PM,81.0,52.0,36,29.97,10.0,West,6.9,-,N/A,,Clear,270,2012-11-02 20:53:00
4:53 PM,79.0,53.1,40,29.97,10.0,West,5.8,-,N/A,,Clear,280,2012-11-02 21:53:00
5:53 PM,75.0,54.0,48,29.98,10.0,West,3.5,-,N/A,,Clear,260,2012-11-02 22:53:00
6:53 PM,66.9,54.0,63,29.99,10.0,Calm,Calm,-,N/A,,Clear,0,2012-11-02 23:53:00
7:53 PM,62.1,53.1,72,30.01,10.0,Calm,Calm,-,N/A,,Clear,0,2012-11-03 00:53:00
8:53 PM,61.0,54.0,78,30.02,10.0,SSW,3.5,-,N/A,,Clear,210,2012-11-03 01:53:00
9:53 PM,57.9,53.1,84,30.02,10.0,Calm,Calm,-,N/A,,Clear,0,2012-11-03 02:53:00
10:53 PM,55.9,52.0,87,30.03,10.0,Calm,Calm,-,N/A,,Clear,0,2012-11-03 03:53:00
11:53 PM,54.0,52.0,93,30.04,9.0,Calm,Calm,-,N/A,,Clear,0,2012-11-03 04:53:00